Location: *
(31.2983°S, 151.4094°E)
Time: 23:46:02
(UTC+00:00)

Sich 1 - Pass Details

Date: 25 August 2019
Orbit: 596 x 624 km, 82.5° (Epoch: 17 September)

Event Time Altitude Azimuth Distance (km) Brightness Sun altitude
Rises 19:42:27 0° 335° (NNW) 2,881 6.3 -8.5°
Reaches altitude 10° 19:44:50 10° 325° (NW) 1,980 5.4 -8.0°
Maximum altitude 19:48:49 34° 260° (W) 1,035 3.7 -7.1°
Drops below altitude 10° 19:52:49 10° 195° (SSW) 1,989 5.4 -6.3°
Sets 19:55:13 0° 185° (S) 2,896 6.4 -5.8°
